• In Hungary
  • List of Countries
  • For 7 days
  • Water Temperature
  • Satellite Maps
  • Weather Map
  • News
  • Weather Widgets
  • user-avatar
    Login

    Hourly Weather Puke

    Today, 18 December, Monday

    Time Temperature Precipitation Wind Pressure Humidity
    00:00 -3°C° 0.7 mm 4 mps 690 mmHg 86%
    01:00 -3°C° 0 mm 4 mps 690 mmHg 84%
    02:00 -3°C° 1.4 mm 4 mps 690 mmHg 86%
    03:00 -4°C° 1.4 mm 4 mps 690 mmHg 88%
    04:00 -4°C° 1.4 mm 4 mps 690 mmHg 90%
    05:00 -4°C° 0.7 mm 3 mps 690 mmHg 90%
    06:00 -4°C° 0.7 mm 3 mps 690 mmHg 89%
    07:00 -4°C° 0.7 mm 3 mps 690 mmHg 89%
    08:00 -4°C° 0.1 mm 3 mps 690 mmHg 87%
    09:00 -2°C° 0.1 mm 3 mps 691 mmHg 84%
    10:00 -2°C° 0.1 mm 3 mps 691 mmHg 82%
    11:00 -1°C° 0.1 mm 3 mps 691 mmHg 81%
    12:00 -1°C° 0.1 mm 3 mps 691 mmHg 80%
    13:00 -1°C° 0.1 mm 2 mps 690 mmHg 78%
    14:00 -1°C° 0.2 mm 2 mps 690 mmHg 80%
    15:00 -2°C° 0.2 mm 2 mps 690 mmHg 82%
    16:00 -2°C° 0.2 mm 2 mps 690 mmHg 83%
    17:00 -3°C° 0.3 mm 2 mps 691 mmHg 84%
    18:00 -4°C° 0.3 mm 3 mps 691 mmHg 85%
    19:00 -5°C° 0.3 mm 3 mps 691 mmHg 86%
    20:00 -5°C° 0.1 mm 3 mps 692 mmHg 86%
    21:00 -5°C° 0.1 mm 3 mps 692 mmHg 86%
    22:00 -6°C° 0.1 mm 3 mps 692 mmHg 86%
    23:00 -6°C° 0.1 mm 3 mps 693 mmHg 86%

    Tomorrow, 19 December, Tuesday

    Time Temperature Precipitation Wind Pressure Humidity
    00:00 -6°C° 0.1 mm 3 mps 693 mmHg 85%
    01:00 -6°C° 0.1 mm 3 mps 693 mmHg 85%
    02:00 -7°C° 0 mm 3 mps 694 mmHg 85%
    03:00 -7°C° 0 mm 3 mps 694 mmHg 84%
    04:00 -7°C° 0 mm 3 mps 694 mmHg 84%
    05:00 -8°C° 0 mm 3 mps 695 mmHg 83%
    06:00 -8°C° 0 mm 3 mps 695 mmHg 82%
    07:00 -8°C° 0 mm 3 mps 695 mmHg 82%
    08:00 -7°C° 0 mm 3 mps 696 mmHg 78%
    09:00 -5°C° 0 mm 3 mps 697 mmHg 75%
    10:00 -4°C° 0 mm 3 mps 697 mmHg 71%
    11:00 -2°C° 0 mm 3 mps 697 mmHg 70%
    12:00 -2°C° 0 mm 2 mps 697 mmHg 69%
    13:00 -1°C° 0 mm 2 mps 698 mmHg 67%
    14:00 -2°C° 0 mm 2 mps 698 mmHg 70%
    15:00 -3°C° 0 mm 2 mps 697 mmHg 73%
    16:00 -4°C° 0 mm 2 mps 697 mmHg 77%
    17:00 -5°C° 0 mm 2 mps 698 mmHg 78%
    18:00 -5°C° 0 mm 2 mps 698 mmHg 79%
    19:00 -7°C° 0 mm 3 mps 698 mmHg 81%
    20:00 -7°C° 0 mm 3 mps 698 mmHg 81%
    21:00 -7°C° 0 mm 3 mps 698 mmHg 82%
    22:00 -7°C° 0 mm 3 mps 699 mmHg 82%
    23:00 -8°C° 0 mm 3 mps 698 mmHg 82%

    Day after tomorrow, 20 December, Wednesday

    Time Temperature Precipitation Wind Pressure Humidity
    00:00 -8°C° 0 mm 3 mps 698 mmHg 82%
    01:00 -8°C° 0 mm 3 mps 698 mmHg 83%
    02:00 -8°C° 0 mm 3 mps 698 mmHg 82%
    03:00 -8°C° 0 mm 3 mps 698 mmHg 82%
    04:00 -9°C° 0 mm 3 mps 698 mmHg 82%
    05:00 -9°C° 0 mm 3 mps 698 mmHg 82%
    06:00 -9°C° 0 mm 3 mps 698 mmHg 81%
    07:00 -9°C° 0 mm 3 mps 698 mmHg 80%
    08:00 -7°C° 0 mm 3 mps 698 mmHg 78%
    09:00 -6°C° 0 mm 3 mps 699 mmHg 75%
    10:00 -5°C° 0 mm 3 mps 699 mmHg 72%
    11:00 -4°C° 0 mm 3 mps 699 mmHg 70%
    12:00 -2°C° 0 mm 2 mps 698 mmHg 68%
    13:00 -2°C° 0 mm 2 mps 698 mmHg 66%
    14:00 -3°C° 0 mm 2 mps 698 mmHg 69%
    15:00 -4°C° 0 mm 2 mps 698 mmHg 73%
    16:00 -5°C° 0 mm 2 mps 697 mmHg 76%
    17:00 -6°C° 0 mm 2 mps 697 mmHg 76%
    18:00 -6°C° 0 mm 2 mps 698 mmHg 77%
    19:00 -7°C° 0 mm 2 mps 698 mmHg 78%
    20:00 -7°C° 0 mm 2 mps 698 mmHg 77%
    21:00 -8°C° 0 mm 3 mps 698 mmHg 76%
    22:00 -9°C° 0 mm 3 mps 698 mmHg 76%
    23:00 -9°C° 0 mm 3 mps 698 mmHg 76%

    21 December, Thursday

    Time Temperature Precipitation Wind Pressure Humidity
    00:00 -9°C° 0 mm 3 mps 698 mmHg 75%
    01:00 -9°C° 0 mm 3 mps 698 mmHg 75%
    02:00 -9°C° 0 mm 3 mps 698 mmHg 75%
    03:00 -9°C° 0 mm 3 mps 698 mmHg 75%
    04:00 -9°C° 0 mm 3 mps 697 mmHg 74%
    05:00 -9°C° 0 mm 3 mps 698 mmHg 74%
    06:00 -9°C° 0 mm 3 mps 698 mmHg 74%
    07:00 -9°C° 0 mm 3 mps 698 mmHg 74%
    08:00 -8°C° 0 mm 3 mps 698 mmHg 71%
    09:00 -6°C° 0 mm 3 mps 699 mmHg 68%
    10:00 -5°C° 0 mm 3 mps 699 mmHg 65%
    11:00 -3°C° 0 mm 2 mps 699 mmHg 63%
    12:00 -2°C° 0 mm 2 mps 699 mmHg 61%
    13:00 -1°C° 0 mm 2 mps 699 mmHg 59%
    14:00 -3°C° 0 mm 2 mps 698 mmHg 62%
    15:00 -4°C° 0 mm 2 mps 698 mmHg 66%
    16:00 -5°C° 0 mm 2 mps 698 mmHg 70%
    17:00 -6°C° 0 mm 2 mps 698 mmHg 69%
    18:00 -6°C° 0 mm 2 mps 698 mmHg 69%
    19:00 -7°C° 0 mm 2 mps 699 mmHg 69%
    20:00 -7°C° 0 mm 2 mps 699 mmHg 67%
    21:00 -7°C° 0 mm 2 mps 699 mmHg 65%
    22:00 -7°C° 0 mm 2 mps 699 mmHg 63%
    23:00 -7°C° 0 mm 2 mps 699 mmHg 61%

    22 December, Friday

    Time Temperature Precipitation Wind Pressure Humidity
    00:00 -7°C° 0 mm 2 mps 699 mmHg 60%
    01:00 -6°C° 0 mm 2 mps 698 mmHg 58%
    02:00 -6°C° 0 mm 2 mps 698 mmHg 57%
    03:00 -6°C° 0 mm 2 mps 698 mmHg 56%
    04:00 -5°C° 0 mm 2 mps 697 mmHg 55%
    05:00 -5°C° 0 mm 2 mps 698 mmHg 55%
    06:00 -5°C° 0 mm 2 mps 698 mmHg 55%
    07:00 -4°C° 0 mm 2 mps 698 mmHg 55%
    08:00 -2°C° 0 mm 2 mps 698 mmHg 58%
    09:00 +2°C° 0 mm 1 mps 698 mmHg 61%
    10:00 +4°C° 0 mm 1 mps 699 mmHg 64%
    11:00 +5°C° 0 mm 1 mps 699 mmHg 68%
    12:00 +5°C° 0 mm 1 mps 698 mmHg 71%
    13:00 +6°C° 0 mm 1 mps 698 mmHg 74%
    14:00 +4°C° 0 mm 2 mps 698 mmHg 76%
    15:00 +3°C° 0 mm 2 mps 698 mmHg 78%
    16:00 +2°C° 0 mm 2 mps 697 mmHg 80%
    17:00 +1°C° 0 mm 2 mps 697 mmHg 80%
    18:00 -1°C° 0 mm 3 mps 698 mmHg 80%
    19:00 -1°C° 0 mm 3 mps 698 mmHg 80%
    20:00 -2°C° 0 mm 3 mps 698 mmHg 80%
    21:00 -2°C° 0 mm 3 mps 697 mmHg 79%
    22:00 -2°C° 0 mm 3 mps 697 mmHg 78%
    23:00 -2°C° 0 mm 3 mps 697 mmHg 78%

    23 December, Saturday

    Time Temperature Precipitation Wind Pressure Humidity
    00:00 -4°C° 0 mm 3 mps 697 mmHg 77%
    01:00 -4°C° 0 mm 3 mps 696 mmHg 77%
    02:00 -4°C° 0 mm 3 mps 696 mmHg 76%
    03:00 -4°C° 0 mm 3 mps 696 mmHg 75%
    04:00 -4°C° 0 mm 3 mps 695 mmHg 75%
    05:00 -4°C° 0 mm 3 mps 695 mmHg 74%
    06:00 -4°C° 0 mm 3 mps 695 mmHg 74%
    07:00 -4°C° 0 mm 3 mps 695 mmHg 73%
    08:00 -2°C° 0 mm 3 mps 695 mmHg 71%
    09:00 0°C° 0 mm 3 mps 695 mmHg 69%
    10:00 +1°C° 0 mm 3 mps 695 mmHg 68%
    11:00 +1°C° 0 mm 3 mps 695 mmHg 67%
    12:00 +2°C° 0 mm 3 mps 694 mmHg 66%
    13:00 +2°C° 0 mm 3 mps 694 mmHg 65%
    14:00 +1°C° 0 mm 3 mps 694 mmHg 68%
    15:00 0°C° 0 mm 3 mps 694 mmHg 72%
    16:00 -1°C° 0 mm 3 mps 693 mmHg 75%
    17:00 -2°C° 0 mm 3 mps 694 mmHg 76%
    18:00 -4°C° 0 mm 3 mps 694 mmHg 77%
    19:00 -4°C° 0 mm 3 mps 694 mmHg 78%
    20:00 -4°C° 0 mm 3 mps 694 mmHg 79%
    21:00 -5°C° 0 mm 3 mps 694 mmHg 79%
    22:00 -5°C° 0 mm 3 mps 695 mmHg 80%
    23:00 -5°C° 0 mm 3 mps 695 mmHg 80%
    Show more